This demonstration page uses our WeatherBlox Daily Observations layout. Learn more.

Left ArrowRight Arrow

Hourly Observations for March 2, 2021

Temp ( °F °C ) Dew Point ( °F °C ) Humidity (%) Winds ( mph kmh ) Pressure ( in mb ) Visibility ( mi km ) Precip ( " mm )
12:53 am 00:53 Mostly Clear 46 7.8 31 -0.6 56 56 Calm 30.17 1022 10 16 0.00 0.00
1:53 am 01:53 Mostly Cloudy 45 7.2 32 0 61 61 NW 10 17 30.21 1023 10 16 0.00 0.00
2:53 am 02:53 Clear 44 6.7 31 -0.6 60 60 NNW 7 11 30.17 1022 10 16 0.00 0.00
3:53 am 03:53 Clear 44 6.7 31 -0.6 60 60 NNW 8 13 30.16 1021 10 16 0.00 0.00
4:53 am 04:53 Mostly Clear 43 6.1 30 -1.1 60 60 N 8 13 30.15 1021 10 16 0.00 0.00
5:53 am 05:53 Mostly Cloudy 43 6.1 29 -1.7 58 58 N 3 6 30.16 1021 10 16 0.00 0.00
6:53 am 06:53 Cloudy 43 6.1 30 -1.1 60 60 NW 5 7 30.19 1022 10 16 0.00 0.00
7:53 am 07:53 Mostly Cloudy 43 6.1 30 -1.1 60 60 N 7 11 30.17 1022 10 16 0.00 0.00
8:53 am 08:53 Mostly Cloudy 43 6.1 31 -0.6 63 63 NNW 5 7 30.24 1024 10 16 0.00 0.00
9:53 am 09:53 Cloudy 44 6.7 32 0 63 63 Calm 30.25 1024 10 16 0.00 0.00
10:53 am 10:53 Mostly Cloudy 46 7.8 32 0 58 58 E 3 6 30.23 1024 10 16 0.00 0.00
11:53 am 11:53 Cloudy 49 9.4 29 -1.7 46 46 E 8 13 30.24 1024 10 16 0.00 0.00
12:53 pm 12:53 Cloudy 49 9.4 27 -2.8 43 43 E 8 13 30.21 1023 10 16 0.00 0.00
1:53 pm 13:53 Cloudy 49 9.4 26 -3.3 41 41 E 7 11 30.16 1021 10 16 0.00 0.00
2:53 pm 14:53 Cloudy with Light Rain 47 8.3 31 -0.6 54 54 E 6 9 30.13 1020 10 16 0.01 0.25
3:53 pm 15:53 Cloudy 47 8.3 31 -0.6 54 54 E 9 15 30.12 1020 10 16 0.00 0.00
4:53 pm 16:53 Cloudy 47 8.3 30 -1.1 52 52 ENE 13 20 30.14 1021 10 16 0.00 0.00
5:53 pm 17:53 Cloudy 47 8.3 29 -1.7 50 50 E 12 19 30.12 1020 10 16 0.00 0.00
6:53 pm 18:53 Cloudy with Light Rain 47 8.3 29 -1.7 50 50 E 9 15 30.12 1020 10 16 0.00 0.00
7:53 pm 19:53 Cloudy with Light Rain 44 6.7 34 1.1 68 68 ENE 5 7 30.14 1021 10 16 0.01 0.25
8:53 pm 20:53 Cloudy with Light Rain 43 6.1 34 1.1 71 71 ENE 7 11 30.12 1020 10 16 0.02 0.51
9:53 pm 21:53 Cloudy with Light Rain 42 5.6 35 1.7 76 76 E 5 7 30.12 1020 10 16 0.02 0.51
10:53 pm 22:53 Cloudy with Light Rain 42 5.6 35 1.7 76 76 E 7 11 30.12 1020 10 16 0.01 0.25
11:53 pm 23:53 Cloudy with Light Rain 41 5 36 2.2 82 82 ENE 5 7 30.10 1019 10 16 0.01 0.25

Powered by AerisWeather